Weather History for Natchitoches, LA

Change the Weather History Date:

Sunday, November 25, 2012

  Actual Average Record
Temperature  
Mean Temperature 48 °F -  
Max Temperature 70 °F 65 °F 84 °F (1967)
Min Temperature 26 °F 41 °F 19 °F (1938)
Degree Days  
Heating Degree Days 17    
Moisture  
Dew Point 36 °F    
Average Humidity 70    
Maximum Humidity 100    
Minimum Humidity 30    
Precipitation  
Precipitation 0.00 in - - ()
Sea Level Pressure  
Sea Level Pressure 30.10 in    
Wind  
Wind Speed 2 mph (SSE)    
Max Wind Speed 9 mph    
Max Gust Speed -    
Visibility 10 miles    
Events      
Averages and records for this station are not official NWS values.
T = Trace of Precipitation, MM = Missing Value Source: NWS Daily Summary

Daily Weather History Graph

Daily Weather History Graph

Search for Another Location

Airport:

Trip Planner

Search our weather history database for the weather conditions in past years. The results will help you decide how hot, cold, wet, or windy it might be!

Date:

Astronomy

Nov. 25, 2012 Rise Set
Actual Time 6:49 AM CST 5:09 PM CST
Civil Twilight 6:23 AM CST 5:35 PM CST
Nautical Twilight 5:53 AM CST 6:05 PM CST
Astronomical Twilight 5:24 AM CST 6:34 PM CST
Moon 3:20 PM CST (11/25) 4:11 AM CST (11/25)
Length of Visible Light 11h 12m
Length of Day
10h 19m
Waxing Gibbous, 93% of the Moon is Illuminated
Nov 25
Waxing Gibbous
Nov 28
Full
Dec 6
Last Quarter
Dec 13
New
Dec 19
First Quarter

Hourly Weather History & Observations

Time (CST) Temp. Dew Point Humidity Pressure Visibility Wind Dir Wind Speed Gust Speed Precip Events Conditions
12:15 AM 29.1 °F 29.1 °F 100% 30.19 in 10.0 mi Calm Calm - N/A   Clear
12:35 AM 29.1 °F 28.9 °F 99% 30.19 in 10.0 mi Calm Calm - N/A   Clear
12:55 AM 28.6 °F 28.4 °F 99% 30.18 in 10.0 mi Calm Calm - N/A   Clear
1:15 AM 28.0 °F 27.9 °F 99% 30.18 in 10.0 mi Calm Calm - N/A   Clear
1:35 AM 27.5 °F 27.5 °F 100% 30.18 in 10.0 mi Calm Calm - N/A   Clear
1:55 AM 28.0 °F 28.0 °F 100% 30.17 in 10.0 mi Calm Calm - N/A   Clear
2:15 AM 27.7 °F 27.5 °F 99% 30.17 in 10.0 mi Calm Calm - N/A   Clear
2:35 AM 27.5 °F 27.5 °F 100% 30.17 in 10.0 mi Calm Calm - N/A   Clear
2:55 AM 27.5 °F 27.3 °F 99% 30.16 in 10.0 mi Calm Calm - N/A   Clear
3:15 AM 27.3 °F 27.3 °F 100% 30.16 in 10.0 mi Calm Calm - N/A   Clear
3:35 AM 27.3 °F 27.1 °F 99% 30.15 in 10.0 mi Calm Calm - N/A   Clear
3:55 AM 27.1 °F 27.0 °F 99% 30.15 in 10.0 mi Calm Calm - N/A   Clear
4:15 AM 26.8 °F 26.4 °F 99% 30.15 in 10.0 mi Calm Calm - N/A   Clear
4:35 AM 27.1 °F 27.0 °F 99% 30.15 in 10.0 mi Calm Calm - N/A   Clear
4:55 AM 27.3 °F 27.0 °F 99% 30.15 in 10.0 mi Calm Calm - N/A   Clear
5:15 AM 26.4 °F 25.5 °F 96% 30.15 in 10.0 mi Calm Calm - N/A   Clear
5:35 AM 26.6 °F 26.1 °F 98% 30.15 in 10.0 mi Calm Calm - N/A   Clear
5:55 AM 26.4 °F 26.1 °F 99% 30.15 in 10.0 mi Calm Calm - N/A   Clear
6:15 AM 26.4 °F 25.7 °F 97% 30.16 in 10.0 mi Calm Calm - N/A   Clear
6:35 AM 26.4 °F 25.7 °F 97% 30.16 in 10.0 mi Calm Calm - N/A   Clear
6:55 AM 26.6 °F 25.9 °F 97% 30.16 in 10.0 mi Calm Calm - N/A   Clear
7:15 AM 28.2 °F 28.0 °F 99% 30.16 in 10.0 mi Calm Calm - N/A   Clear
7:35 AM 30.4 °F 30.0 °F 99% 30.17 in 10.0 mi Calm Calm - N/A   Clear
7:55 AM 32.0 °F 31.3 °F 97% 30.17 in 10.0 mi Calm Calm - N/A   Clear
8:15 AM 35.1 °F 32.0 °F 89% 30.18 in 10.0 mi Calm Calm - N/A   Clear
8:35 AM 38.1 °F 32.2 °F 79% 30.18 in 10.0 mi Calm Calm - N/A   Clear
8:55 AM 41.0 °F 32.5 °F 72% 30.18 in 10.0 mi Calm Calm - N/A   Clear
9:15 AM 44.8 °F 33.4 °F 64% 30.18 in 10.0 mi Calm Calm - N/A   Clear
9:35 AM 47.5 °F 33.1 °F 57% 30.18 in 10.0 mi SSE 3.5 mph - N/A   Clear
9:55 AM 50.2 °F 33.4 °F 53% 30.18 in 10.0 mi SE 5.8 mph - N/A   Clear
10:15 AM 52.0 °F 33.6 °F 50% 30.18 in 10.0 mi SSE 4.6 mph - N/A   Clear
10:35 AM 55.6 °F 34.3 °F 45% 30.17 in 10.0 mi SSE 3.5 mph - N/A   Clear
10:55 AM 58.3 °F 35.2 °F 42% 30.16 in 10.0 mi South 4.6 mph - N/A   Clear
11:15 AM 60.1 °F 35.6 °F 40% 30.15 in 10.0 mi SSW 4.6 mph - N/A   Clear
11:35 AM 62.6 °F 35.2 °F 36% 30.14 in 10.0 mi South 3.5 mph - N/A   Clear
11:55 AM 63.5 °F 36.0 °F 36% 30.13 in 10.0 mi South 5.8 mph - N/A   Clear
12:15 PM 63.9 °F 35.8 °F 35% 30.11 in 10.0 mi South 6.9 mph - N/A   Clear
12:35 PM 65.3 °F 36.5 °F 34% 30.10 in 10.0 mi SSE 4.6 mph - N/A   Clear
12:55 PM 66.2 °F 36.9 °F 34% 30.09 in 10.0 mi SSE 5.8 mph - N/A   Clear
1:15 PM 67.1 °F 37.0 °F 33% 30.07 in 10.0 mi South 3.5 mph - N/A   Clear
1:35 PM 68.5 °F 36.9 °F 31% 30.06 in 10.0 mi South 6.9 mph - N/A   Clear
1:55 PM 68.9 °F 37.2 °F 31% 30.05 in 10.0 mi SSW 4.6 mph - N/A   Clear
2:15 PM 69.8 °F 37.2 °F 30% 30.04 in 10.0 mi SSE 5.8 mph - N/A   Clear
2:35 PM 70.2 °F 37.4 °F 30% 30.03 in 10.0 mi SSW 4.6 mph - N/A   Clear
2:55 PM 70.5 °F 37.8 °F 30% 30.03 in 10.0 mi South 4.6 mph - N/A   Clear
3:15 PM 70.5 °F 38.5 °F 31% 30.02 in 10.0 mi South 6.9 mph - N/A   Clear
3:35 PM 70.2 °F 39.2 °F 32% 30.02 in 10.0 mi SSE 6.9 mph - N/A   Clear
3:55 PM 69.3 °F 39.4 °F 34% 30.01 in 10.0 mi South 6.9 mph - N/A   Clear
4:15 PM 68.7 °F 40.5 °F 36% 30.02 in 10.0 mi SSE 8.1 mph - N/A   Clear
4:35 PM 66.7 °F 41.0 °F 39% 30.01 in 10.0 mi SSE 8.1 mph - N/A   Clear
4:55 PM 64.2 °F 41.4 °F 43% 30.01 in 10.0 mi SSE 8.1 mph - N/A   Clear
5:15 PM 60.6 °F 41.0 °F 48% 30.01 in 10.0 mi SSE 9.2 mph - N/A   Clear
5:35 PM 58.6 °F 41.0 °F 52% 30.02 in 10.0 mi South 6.9 mph - N/A   Clear
5:55 PM 56.7 °F 41.0 °F 56% 30.01 in 10.0 mi SSE 6.9 mph - N/A   Clear
6:15 PM 56.5 °F 41.2 °F 57% 30.01 in 10.0 mi SSE 6.9 mph - N/A   Clear
6:35 PM 55.9 °F 41.2 °F 58% 30.01 in 10.0 mi SSE 6.9 mph - N/A   Clear
6:55 PM 55.6 °F 41.7 °F 60% 30.01 in 10.0 mi SSE 6.9 mph - N/A   Clear
7:15 PM 54.7 °F 41.9 °F 62% 30.01 in 10.0 mi SSE 6.9 mph - N/A   Clear
7:35 PM 54.1 °F 42.6 °F 65% 30.01 in 10.0 mi SSE 8.1 mph - N/A   Clear
7:55 PM 54.0 °F 43.5 °F 68% 30.01 in 10.0 mi SSE 6.9 mph - N/A   Clear
8:15 PM 53.6 °F 43.7 °F 69% 30.01 in 10.0 mi SSE 5.8 mph - N/A   Clear
8:35 PM 53.1 °F 43.9 °F 71% 30.02 in 10.0 mi SSE 5.8 mph - N/A   Clear
8:55 PM 52.7 °F 44.1 °F 72% 30.02 in 10.0 mi SSE 6.9 mph - N/A   Clear
9:15 PM 52.7 °F 45.3 °F 76% 30.02 in 10.0 mi South 4.6 mph - N/A   Clear
9:35 PM 53.2 °F 47.5 °F 81% 30.02 in 10.0 mi SSE 5.8 mph - N/A   Clear
9:55 PM 54.0 °F 48.2 °F 81% 30.02 in 10.0 mi South 6.9 mph - N/A   Clear
10:15 PM 53.2 °F 48.4 °F 84% 30.03 in 10.0 mi SSE 5.8 mph - N/A   Clear
10:35 PM 53.4 °F 49.3 °F 86% 30.02 in 10.0 mi SSE 6.9 mph - N/A   Clear
10:55 PM 53.6 °F 49.8 °F 87% 30.02 in 10.0 mi SSE 5.8 mph - N/A   Clear
11:15 PM 53.4 °F 50.0 °F 88% 30.02 in 10.0 mi SSE 6.9 mph - N/A   Clear
11:35 PM 53.1 °F 50.0 °F 89% 30.02 in 10.0 mi SSE 5.8 mph - N/A   Clear
11:55 PM 52.7 °F 49.5 °F 89% 30.02 in 10.0 mi SE 4.6 mph - N/A   Clear